Location: ??????
(41.3164°N, 22.6615°E)
Time: 09:40:20
(UTC+00:00)

Cosmos 2263 Rocket - Pass Details

Date: 16 October 2021
Orbit: 825 x 847 km, 71.0° (Epoch: 07 December)

Event Time Altitude Azimuth Distance (km) Brightness Sun altitude
Rises 19:05:27 0° 321° (NW) 3,369 6.1 -37.4°
Reaches altitude 10° 19:08:29 10° 305° (NW) 2,430 5.3 -37.9°
Maximum altitude 19:12:23 20° 260° (W) 1,835 4.3 -38.6°
Enters shadow 19:12:42 20° 255° (WSW) 1,839 4.3 -38.7°
